User: anonymous   Login
Location: Key Biscayne
(25.6930°N, 80.1630°W)
Time: 15:43:04
(UTC-05:00)
Language:

CZ-2D R/B - Orbit

View from above orbital plane
View from above orbital plane
View from above satellite
View from above satellite

Ground track
Ground track

The orbit data is extracted from the following two-line orbital elements,

1 28738U 05024B   14323.47737641  .00005613  00000-0  37208-3 0  9056
2 28738 097.6142 357.3264 0012952 358.6951 001.4241 15.07615321513850
Epoch (UTC): 19 November 2014 11:27:25
Eccentricity: 0.0012952
inclination: 97.6142°
perigee height: 534 km
apogee height: 552 km
right ascension of ascending node: 357.3264°
argument of perigee: 358.6951°
revolutions per day: 15.07615321
mean anomaly at epoch: 1.4241°
orbit number at epoch: 51385

The dashed part of the orbit path shows where the satellite is in the earth's shadow,  

DLR